Miscellaneous Hydrologic Data Report
Issued by NWS (Baltimore/Washington) Sterling, VA
1 of 56 available versions  First Miscellaneous Hydrologic Data Report Previous Miscellaneous Hydrologic Data Report  Print this page Close this Window


000
ASUS41 KLWX 302110
RWRLWX

REGIONAL WEATHER ROUNDUP
NATIONAL WEATHER SERVICE BALTIMORE MD/WASHINGTON DC
500 PM EDT WED JUL 30 2014

Note: "FAIR" indicates few or no clouds below 12,000 feet
with no significant weather and/or obstructions to visibility.
 TC=TEMPERATURE CELSIUS

 * =Non NWS site. Station does not report precipitation (e.g. rain,
    snow, etc.), thunder, or fog.

DCZ001-MDZ009-015-VAZ040>042-051-053>054-302200-
WASHINGTON METRO
  /KDAA//-FT BELVOIR

CITY           SKY/WX    TMP DP  RH WIND       PRES   REMARKS
WASHINGTON NAT PTSUNNY   79  54  41 S13       30.04F
DULLES         MOSUNNY   77  51  40 S9        30.03F
ANDREWS AFB    SUNNY     78  52  39 W8        30.04F
QUANTICO       MOSUNNY   78  54  43 S8        30.05F
COLLEGE PARK*  MOSUNNY   79  48  34 S3        30.03F
LEESBURG*      SUNNY     79  55  44 W3        30.04F
MANASSAS*      SUNNY     79  54  41 SW3       30.04F
GAITHERSBURG*  SUNNY     79  52  38 S5        30.07F

$$

MDZ006>007-011-014-302200-
BALTIMORE METRO

CITY           SKY/WX    TMP DP  RH WIND       PRES   REMARKS
BWI AIRPORT    MOSUNNY   80  49  33 SW7       30.02F
MD SCIENCE CTR   N/A     80  50  34 MISG      30.03S
MARTIN STATE   MOSUNNY   79  59  50 SE12      30.04F
ANNAPOLIS      MOSUNNY   76  54  46 S10       30.03F
FORT MEADE*    SUNNY     77  50  38 SW3       30.05F

$$

MDZ012-015-019>023-302200-
MARYLAND EASTERN SHORE

CITY           SKY/WX    TMP DP  RH WIND       PRES   REMARKS
OCEAN CITY     MOSUNNY   76  59  55 SE7       30.05S
SALISBURY      SUNNY     81  51  35 W7        30.04F
BAY BRIDGE AP*   N/A     79  50  36 SE8       30.04F
CAMBRIDGE*     SUNNY     79  48  34 W6        30.05S
EASTON*        SUNNY     79  50  36 SW3       30.08F

$$

MDZ017>025-302200-
SOUTHERN MARYLAND

CITY           SKY/WX    TMP DP  RH WIND       PRES   REMARKS
PATUXENT RIVER MOSUNNY   78  49  35 W7        30.04F
ST INIGOES     SUNNY     78  53  41 NW7       30.04F
LEONARDTOWN*   MOSUNNY   77  48  36 W7        30.06F

$$

MDZ003>005-302200-
NORTH CENTRAL MARYLAND

CITY           SKY/WX    TMP DP  RH WIND       PRES   REMARKS
FREDERICK*     SUNNY     79  57  47 SW8       30.06F
HAGERSTOWN APT PTSUNNY   76  51  41 S10       30.02F
WESTMINSTER*   SUNNY     75  55  50 SW8       30.05S

$$

MDZ501>502-302200-
WESTERN MARYLAND

CITY           SKY/WX    TMP DP  RH WIND       PRES   REMARKS
OAKLAND*       PTSUNNY   64  50  59 SW9       30.10S
CUMBERLAND*    MOSUNNY   81  54  39 S8        30.05F

$$

VAZ025>031-302200-
SHENANDOAH VALLEY

CITY           SKY/WX    TMP DP  RH WIND       PRES   REMARKS
WINCHESTER*    CLOUDY    77  52  41 SW6       30.03F
STAUNTON*      MOSUNNY   76  50  39 S5        30.08F

$$

WVZ021-048>050-054>055-302200-
EASTERN WEST VIRGINIA PANHANDLE

CITY           SKY/WX    TMP DP  RH WIND       PRES   REMARKS
MARTINSBURG    MOSUNNY   76  51  41 SW7       30.03F
PETERSBURG*    PTSUNNY   73  48  41 SW3       30.05S

$$

VAZ036>039-050-302200-
CENTRAL FOOTHILLS

CITY           SKY/WX    TMP DP  RH WIND       PRES   REMARKS
CHARLOTTESVILL MOSUNNY   79  54  41 MISG      30.04F
ORANGE*        SUNNY     79  52  38 CALM      30.06F

$$

VAZ055>057-302200-
NORTH AND CENTRAL PIEDMONT

CITY           SKY/WX    TMP DP  RH WIND       PRES   REMARKS
FREDERICKSBRG* SUNNY     80  54  40 W3        30.03F
STAFFORD*      SUNNY     78  53  41 CALM      30.08F

$$

NCZ024-NYZ072-PAZ021-071-VAZ022-071-302200-
OTHER REGIONAL OBSERVATIONS

CITY           SKY/WX    TMP DP  RH WIND       PRES   REMARKS
NEW YORK CITY  PTSUNNY   77  53  43 VRB3      30.03R
PHILADELPHIA   MOSUNNY   78  51  38 SW8       30.03S
PITTSBURGH     PTSUNNY   72  56  57 SW8       30.02S
ROANOKE        PTSUNNY   75  54  47 SE7       30.09F
RICHMOND       MOSUNNY   82  52  35 NW8       30.05F
RALEIGH        MOSUNNY   77  63  61 E8        30.05F

$$

ANZ530>537-302200-
MARINE OBSERVATIONS

STATION/POSITION TIME  TEMP    WIND        PRES
                       AIR SEA DIR/SP/G
                 (UTC) (F)     (DEG/KT/KT) (MB)
THOMAS PT LIGHT  2100   75 78  170/ 10/ 11 1017.6F
BALT KEY BRIDGE  2100   75     110/ 11/ 12 1016.6F
COVE POINT       2100   76     270/  7/  9 1017.4F
LEWISETTA        2100   76 77   20/  2/  3 1017.2F
SOLOMONS ISLAND  2100      79                N/A
PINEY POINT      2100          350/  9/ 10   N/A

$$


Close this window


The National Weather Service prepares its forecasts and other services in collaboration with agencies like the US Geological Survey, US Bureau of Reclamation, US Army Corps of Engineers, Natural Resource Conservation Service, National Park Service, ALERT Users Group, Bureau of Indian Affairs, and many state and local emergency managers across the country. For details, please click here.

National Weather Service
(Baltimore/Washington) Sterling Weather Forecast Office
43858 Weather Service Rd.
Sterling, VA 20166
(703) 996-2200
Page last modified: 30-Jul-2014 9:10 PM
Disclaimer
Credits
Glossary
Privacy Policy
About Us
Career Opportunities